This is the latest recevied weather packets stored in our database for station/object KD9IXX-13. If no packets are shown the sender has not sent any weather packets the latest 10 day(s).
| Time | Temp. | Humidity | Pressure | Rain* | Wind** | Luminosity | Snow |
|---|---|---|---|---|---|---|---|
| 1777596902 | 6.11° C | 99% | 1015.9 hPa | 0 mm | - | 0 W/m² | - |
| 1777596602 | 6.67° C | 99% | 1016 hPa | 0 mm | - | 0 W/m² | - |
| 1777596302 | 6.67° C | 99% | 1016 hPa | 0 mm | - | 2 W/m² | - |
| 1777596002 | 6.67° C | 99% | 1015.7 hPa | 0 mm | - | 2 W/m² | - |
| 1777595702 | 6.67° C | 99% | 1015.7 hPa | 0 mm | - | 2 W/m² | - |
| 1777595403 | 6.67° C | 99% | 1015.6 hPa | 0 mm | - | 3 W/m² | - |
| 1777595102 | 6.67° C | 99% | 1015.7 hPa | 0 mm | - | 7 W/m² | - |
| 1777594802 | 7.22° C | 99% | 1015.8 hPa | 0 mm | - | 6 W/m² | - |
| 1777594502 | 7.22° C | 99% | 1015.6 hPa | 0 mm | - | 8 W/m² | - |
| 1777594202 | 7.22° C | 99% | 1015.7 hPa | 0 mm | - | 12 W/m² | - |
| 1777593902 | 7.22° C | 99% | 1015.7 hPa | 1.02 mm | - | 10 W/m² | - |
| 1777593602 | 7.78° C | 99% | 1015.7 hPa | 1.02 mm | - | 16 W/m² | - |
| 1777593302 | 7.78° C | 99% | 1015.6 hPa | 0 mm | - | 27 W/m² | - |
| 1777593002 | 7.78° C | 99% | 1015.6 hPa | 0 mm | - | 21 W/m² | - |
| 1777592702 | 7.78° C | 99% | 1015.5 hPa | 0 mm | - | 27 W/m² | - |
| 1777592403 | 7.78° C | 99% | 1015.4 hPa | 0 mm | - | 22 W/m² | - |
| 1777592102 | 7.78° C | 98% | 1015.6 hPa | 0 mm | - | 18 W/m² | - |
| 1777591802 | 7.78° C | 98% | 1015.7 hPa | 0 mm | - | 16 W/m² | - |
| 1777591502 | 7.78° C | 98% | 1015.7 hPa | 0 mm | - | 24 W/m² | - |
| 1777591202 | 7.78° C | 98% | 1015.8 hPa | 0 mm | - | 29 W/m² | - |
| 1777590902 | 8.33° C | 98% | 1015.7 hPa | 0 mm | - | 21 W/m² | - |
| 1777590602 | 7.78° C | 98% | 1015.9 hPa | 0 mm | - | 40 W/m² | - |
| 1777590302 | 7.78° C | 98% | 1016 hPa | 0 mm | - | 28 W/m² | - |
| 1777590002 | 7.78° C | 98% | 1015.9 hPa | 0 mm | - | 47 W/m² | - |
| 1777589702 | 8.33° C | 98% | 1015.7 hPa | 0 mm | - | 56 W/m² | - |
* Rain latest hour (hover to see other rain measurements)
** Current wind speed in m/s (hover to see current wind gust speed)